Zhongzi 02 zu 04 xing

operational
NORAD ID: 49021 Int'l Des: 2021-064 Owner: NINGX/CASC Country: CN
LEOCIRCULAR

关于 Zhongzi 02 zu 04 xing

正在加载描述...

实时位置

正在加载3D地球...

即将过境

高度历史

Altitude vs Time

uPlot chart will show altitude changes over time

两行轨道根数

1 49021U 21064D 26062.33598780 .00000169 00000-0 17417-3 0 9997
2 49021 45.0043 345.1907 0007528 106.1254 254.0411 14.08541166239304
Epoch: Mar 3, 2026 • Age: 35 hours

当前状态

高度 879.4 km
速度 7.41 km/s
星下点 -33.86°S, 29.8°W
发射日期 Jul 9, 2021
运行时间 4.6 years
类型 other

技术详情

分类 Payload
质量 100.00 kg
干质量 100.00 kg
总质量 100.00 kg
长度 0.50 m
直径 0.20 m
跨度 1.00 m
形状 Box + 2 pan
制造商 DFHZ
平台类型 NX-1
阶段状态 In Orbit
所有者/国家 NINGX/CASC/CN

大型星座

Loading constellations...